Location: Bathurst
(33.4193°S, 149.5775°E)
Time: 10:14:53
(UTC+10:00)

Vanguard 1 Rocket - Pass Details

Date: 18 June 2021
Orbit: 650 x 4226 km, 34.3° (Epoch: 02 August)

Event Time Altitude Azimuth Distance (km) Brightness Sun altitude
Rises 06:11:53 0° 333° (NNW) 8,439 12.3 -10.9°
Reaches altitude 10° 06:18:59 10° 341° (NNW) 7,395 12.1 -9.5°
Maximum altitude 06:39:22 33° 35° (NE) 4,789 11.8 -5.6°
Drops below altitude 10° 06:53:16 10° 91° (E) 5,160 12.4 -2.9°
Sets 06:56:58 0° 100° (E) 5,727 12.4 -2.3°
